This demonstration page uses our WeatherBlox Daily Observations layout. Learn more.

Left ArrowRight Arrow

39.92423, -83.80882

Hourly Observations for February 8, 2021

Temp ( °F °C ) Dew Point ( °F °C ) Humidity (%) Winds ( mph kmh ) Pressure ( in mb ) Visibility ( mi km ) Precip ( " mm )
12:56 am 00:56 Cloudy 10 -12.2 1 -17.2 67 67 N 6 9 30.34 1027 10 16 0.00 0.00
1:56 am 01:56 Cloudy 10 -12.2 -2 -18.9 58 58 NE 3 6 30.34 1028 10 16 0.00 0.00
2:56 am 02:56 Cloudy 10 -12.2 0 -17.8 63 63 ENE 3 6 30.35 1028 10 16 0.00 0.00
3:56 am 03:56 Cloudy 10 -12.2 2 -16.7 69 69 E 5 7 30.35 1028 10 16 0.00 0.00
4:56 am 04:56 Cloudy 11 -11.7 2 -16.7 67 67 E 7 11 30.35 1028 10 16 0.00 0.00
5:56 am 05:56 Cloudy 11 -11.7 3 -16.1 70 70 SE 9 15 30.35 1028 10 16 0.00 0.00
6:56 am 06:56 Cloudy 11 -11.7 5 -15 77 77 E 7 11 30.34 1028 10 16 0.00 0.00
7:56 am 07:56 Cloudy 12 -11.1 6 -14.4 77 77 E 6 9 30.37 1029 10 16 0.00 0.00
8:56 am 08:56 Cloudy 13 -10.6 5 -15 70 70 E 6 9 30.38 1029 10 16 0.00 0.00
9:56 am 09:56 Cloudy 15 -9.4 7 -13.9 70 70 SE 9 15 30.37 1028 10 16 0.00 0.00
10:56 am 10:56 Cloudy 17 -8.3 7 -13.9 64 64 SE 7 11 30.36 1028 10 16 0.00 0.00
11:56 am 11:56 Mostly Cloudy 19 -7.2 9 -12.8 65 65 ESE 7 11 30.34 1027 10 16 0.00 0.00
12:56 pm 12:56 Cloudy 21 -6.1 10 -12.2 62 62 ESE 8 13 30.31 1027 10 16 0.00 0.00
1:56 pm 13:56 Cloudy 23 -5 14 -10 68 68 E 8 13 30.29 1026 10 16 0.00 0.00
2:56 pm 14:56 Cloudy 23 -5 14 -10 68 68 ESE 7 11 30.28 1025 10 16 0.00 0.00
3:56 pm 15:56 Cloudy 23 -5 15 -9.4 72 72 E 7 11 30.28 1025 10 16 0.00 0.00
4:56 pm 16:56 Cloudy 24 -4.4 16 -8.9 71 71 ENE 6 9 30.26 1025 10 16 0.00 0.00
5:56 pm 17:56 Cloudy 24 -4.4 16 -8.9 71 71 E 7 11 30.24 1024 10 16 0.00 0.00
6:56 pm 18:56 Cloudy 24 -4.4 17 -8.3 75 75 ENE 3 6 30.26 1025 10 16 0.00 0.00
7:56 pm 19:56 Cloudy with Light Snow 24 -4.4 19 -7.2 81 81 ENE 5 7 30.25 1024 4 6 0.00 0.00
8:17 pm 20:17 Cloudy with Light Snow 25 -4 19 -7 80 80 E 3 6 30.27 1025 9 14 0.00 0.00
8:56 pm 20:56 Cloudy 24 -4.4 20 -6.7 84 84 E 3 6 30.26 1025 9 14 0.00 0.00
9:56 pm 21:56 Cloudy with Light Snow 23 -5 20 -6.7 88 88 E 5 7 30.25 1024 8 13 0.00 0.00
10:35 pm 22:35 Cloudy with Light Snow 23 -5 21 -6 93 93 Calm 30.27 1025 2 3 0.00 0.00
10:42 pm 22:42 Cloudy with Light Snow 23 -5 21 -6 93 93 Calm 30.28 1025 2 2 0.00 0.00
10:56 pm 22:56 Cloudy with Light Snow 23 -5 22 -5.6 96 96 Calm 30.26 1025 2 3 0.00 0.00
11:16 pm 23:16 Cloudy with Light Snow 23 -5 21 -6 93 93 N 3 6 30.28 1025 1 2 0.00 0.00
11:25 pm 23:25 Cloudy with Snow 21 -6 21 -6 100 100 N 3 6 30.28 1025 1 1 0.00 0.00
11:42 pm 23:42 Cloudy with Light Snow 21 -6 21 -6 100 100 Calm 30.27 1025 1 1 0.00 0.00
11:56 pm 23:56 Cloudy with Light Snow 22 -5.6 22 -5.6 100 100 Calm 30.24 1024 1 2 0.00 0.00

Powered by AerisWeather